KUIPER-00438

导读

KUIPER-00438(NORAD编号68940)是亚马逊柯伊伯(Project Kuiper)卫星互联网星座的一颗低轨通信卫星,隶属于亚马逊面向全球提供高速低延迟宽带服务的卫星互联网项目。 该卫星随柯伊伯首批全尺寸卫星于2025年4月发射入轨,运行在近地轨道,属于柯伊伯第一代3200余颗卫星组网计划的组成部分。它搭载改进型相控阵天线、光学星间链路等设备,旨在拓展星座网络覆盖,服务偏远地区通信及移动回传等场景,助力亚马逊构建非静止轨道卫星通信系统。

Basic Information
目录编号:
68940
目录名称:
KUIPER-00438
国际标识:
2026-098X
轨道中心:
EARTH
卫星名称:
KUIPER-00438
卫星全名:
KUIPER-00438
卫星状态:
在轨 (已飞行128 天)
发射日期:
2026-04-30 UTC
国别 :
美国 (US)
星等 :
--
Orbit Information
数据来源 国际轨道数据 AOE轨道数据
星历时间 2026-09-04T20:54:06+0800
22小时前
查看轨道信息
2026-09-03T09:00:00+0800
2天前
查看轨道信息
半长轴 7007.701km 7007.711km
偏心率 0.0000738 0.0000873
轨道倾角 51.902° 51.903°
近地点辐角 110.459° 112.403°
升交点赤经 64.793° 71.409°
平近点角 249.645° 193.128°
近地点 629.046km 628.962km
远地点 630.082km 630.186km
周期 97.302分钟 97.302分钟
每日圈数 14.799242 14.799209
Detailed Information
使用方式:
暂无
2D Orbit Map
3D Orbit Map
Orbit Altitude Analysis Chart
Orbit Inclination Analysis Chart
Orbit Comprehensive Analysis Chart
View Comprehensive Chart
Conjunction Data List
Event ID Objects TCA Miss Dist (km) Collision Risk Probability Collision Risk Index (CRI) Action
CDM_260906-050105-801606-894021
T2V (58016)
2026-09-06T
05:01:07+0000
2.984 km
极远距离
1.177266E-6 低风险 0.36